This is the latest recevied weather packets stored in our database for station/object SP2NBH-2. If no packets are shown the sender has not sent any weather packets the latest 10 day(s).
| Time | Temp. | Humidity | Pressure | Rain* | Wind** | Luminosity | Snow |
|---|---|---|---|---|---|---|---|
| 1777648897 | 32.22° C | 19% | 1025.9 hPa | - | - | - | - |
| 1777647996 | 28.89° C | 22% | 1026.2 hPa | - | - | - | - |
| 1777647096 | 30.56° C | 21% | 1026.3 hPa | - | - | - | - |
| 1777646196 | 28.33° C | 22% | 1026.4 hPa | - | - | - | - |
| 1777645296 | 28.89° C | 22% | 1026.6 hPa | - | - | - | - |
| 1777644395 | 25.56° C | 26% | 1026.7 hPa | - | - | - | - |
| 1777642597 | 23.33° C | 28% | 1026.8 hPa | - | - | - | - |
| 1777641730 | 23.89° C | 28% | 1027 hPa | - | - | - | - |
| 1777641697 | 23.89° C | 28% | 1027 hPa | - | - | - | - |
| 1777640798 | 23.33° C | 28% | 1027.2 hPa | - | - | - | - |
| 1777639897 | 23.89° C | 27% | 1027.5 hPa | - | - | - | - |
| 1777638997 | 23.33° C | 30% | 1027.7 hPa | - | - | - | - |
| 1777638097 | 22.78° C | 31% | 1027.7 hPa | - | - | - | - |
| 1777637197 | 23.33° C | 29% | 1027.7 hPa | - | - | - | - |
| 1777636330 | 22.78° C | 30% | 1027.8 hPa | - | - | - | - |
| 1777636296 | 22.78° C | 30% | 1027.8 hPa | - | - | - | - |
| 1777635396 | 23.33° C | 29% | 1027.7 hPa | - | - | - | - |
| 1777634496 | 22.22° C | 31% | 1027.6 hPa | - | - | - | - |
| 1777633596 | 20.56° C | 33% | 1027.9 hPa | - | - | - | - |
| 1777632696 | 23.33° C | 29% | 1027.9 hPa | - | - | - | - |
| 1777631796 | 32.22° C | 24% | 1027.9 hPa | - | - | - | - |
| 1777630896 | 29.44° C | 23% | 1027.9 hPa | - | - | - | - |
| 1777629996 | 28.89° C | 25% | 1028 hPa | - | - | - | - |
| 1777628244 | 26.67° C | 28% | 1028.3 hPa | - | - | - | - |
| 1777628196 | 26.67° C | 28% | 1028.3 hPa | - | - | - | - |
* Rain since midnight (hover to see other rain measurements)
** Current wind speed in m/s (hover to see current wind gust speed)